GFSFLT1_925_thetae_057.txt.gz
Theta_e
353 354 352 351 350 349 349 348 348 347 346 347 346 345 346 345 344 347 346 347 346 347 346 347 349 345 346 348 349 350 351 353 353
353 354 353 352 351 349 349 348 349 348 348 347 346 346 346 347 346 346 347 346 345 347 345 346 346 341 343 345 347 349 351 354 353
350 352 353 352 351 350 348 348 348 348 348 348 347 346 346 347 347 346 346 346 345 345 346 343 344 340 344 346 346 348 351 354 355
344 349 352 352 352 350 349 348 348 348 348 348 348 347 347 347 348 348 348 348 347 345 343 344 342 340 342 346 348 349 351 351 355
341 345 350 351 351 350 350 350 349 348 348 348 348 348 347 347 348 348 348 348 348 347 344 344 344 343 343 346 348 349 352 352 352
342 347 349 351 351 352 351 351 350 349 348 348 348 348 348 348 348 348 349 348 348 348 346 344 345 345 344 344 348 350 351 349 353
333 341 347 350 350 352 351 351 351 351 349 348 348 348 348 349 349 349 349 349 348 349 347 345 346 345 345 347 347 350 352 353 353
334 333 337 348 350 353 352 351 351 351 350 349 348 349 349 350 349 349 349 350 350 350 349 347 346 347 348 348 350 348 350 352 353
344 345 343 338 348 350 353 351 350 350 350 349 349 350 351 351 351 351 351 351 351 350 350 350 351 351 351 351 350 348 346 346 352
339 342 344 346 341 348 351 350 349 349 349 349 349 350 351 352 352 352 351 351 352 352 352 352 351 351 351 351 350 348 346 343 347
333 335 338 342 346 343 349 347 347 348 349 350 350 350 350 351 352 352 352 352 352 352 352 353 354 354 353 353 351 348 347 346 345
328 332 337 343 345 346 336 348 348 349 350 351 351 351 351 351 352 353 353 353 353 352 352 352 352 353 354 354 353 350 348 349 350
329 335 340 346 351 347 338 348 348 350 351 352 353 352 352 352 352 352 353 354 354 354 354 354 354 353 353 354 354 351 349 349 351
332 336 339 351 348 347 350 349 349 351 352 353 352 353 353 353 353 353 354 354 355 356 356 356 357 356 356 356 355 355 353 352 351
327 329 333 343 352 349 349 348 350 352 354 352 353 354 354 354 354 354 355 355 356 356 357 358 359 359 359 359 359 357 356 355 355
323 323 322 329 343 346 352 351 350 352 353 353 353 355 356 356 356 356 356 358 358 358 359 358 359 360 360 360 361 362 360 358 359
321 323 322 320 321 328 339 348 351 354 355 352 353 354 356 357 358 358 358 358 358 359 359 360 359 360 361 361 362 362 363 361 359
320 321 323 321 320 320 322 328 341 347 349 357 355 354 354 354 355 356 358 358 358 359 359 360 361 361 362 362 363 363 362 363 362
318 319 320 323 320 319 320 322 327 333 340 349 350 353 356 354 359 355 356 356 350 356 357 358 359 360 360 362 361 361 360 359 359
316 317 319 323 323 320 321 322 323 326 330 337 346 349 348 345 349 356 356 354 354 355 348 354 355 356 357 357 360 359 359 360 361

GFSFLT1_925_thetae_060.txt.gz
Theta_e
354 355 354 353 351 348 347 349 349 349 350 353 353 352 352 350 350 349 350 351 349 349 347 347 349 355 355 356 356 357 356 354 353
350 352 353 354 354 352 350 348 349 350 351 353 352 351 353 353 351 350 348 349 350 349 349 347 348 351 355 354 354 356 356 354 356
346 349 352 353 354 353 352 350 349 350 350 352 352 351 352 352 352 352 350 350 351 351 349 351 348 350 351 351 352 355 357 355 356
341 348 352 353 353 352 352 351 349 350 351 351 352 351 351 351 351 351 352 352 353 353 353 351 353 351 350 349 353 355 356 356 354
340 342 348 352 352 352 352 352 350 350 350 351 351 351 353 352 352 351 351 353 352 354 354 353 354 353 352 349 350 353 356 356 352
340 341 343 348 351 353 352 352 352 350 350 350 350 351 351 351 352 352 351 352 353 354 354 355 354 354 353 352 350 353 355 355 355
337 340 345 347 351 351 352 353 354 353 350 349 350 350 351 351 352 352 351 352 353 354 354 355 355 354 354 353 351 349 352 353 355
336 334 339 345 350 352 355 354 355 354 352 351 350 352 351 352 354 353 352 353 354 354 355 355 356 355 354 354 353 349 349 351 351
342 341 342 339 347 350 353 353 355 356 355 353 352 354 354 354 355 355 355 355 355 356 355 356 356 356 355 354 353 349 347 348 349
340 340 342 345 346 345 348 350 352 355 357 355 354 356 355 355 357 357 357 356 357 357 357 356 357 356 355 355 355 352 349 347 347
340 341 342 343 344 345 344 346 348 352 354 356 356 357 357 357 358 358 358 358 359 358 357 357 357 357 356 356 356 354 352 350 349
338 342 344 345 345 345 346 346 346 349 352 355 356 358 358 358 359 359 358 359 359 358 358 358 358 357 357 357 357 355 352 352 351
337 341 343 346 348 350 351 350 346 348 352 353 357 357 358 358 359 359 359 359 359 359 358 358 358 358 358 359 359 358 355 353 352
328 331 339 346 353 355 353 352 346 352 353 354 356 355 355 357 358 359 359 359 359 359 358 357 358 357 358 358 358 359 358 355 354
325 326 329 342 355 354 350 346 345 356 357 355 355 355 355 358 358 357 358 360 360 360 360 360 361 360 360 358 359 358 358 357 355
321 323 323 323 343 354 355 351 351 354 357 356 357 357 358 358 358 358 358 359 361 361 361 360 360 361 361 360 360 362 360 358 357
319 319 323 322 324 332 347 355 357 355 356 356 357 359 359 359 360 360 359 360 361 360 360 360 360 361 361 361 361 362 364 362 360
319 319 320 324 323 325 330 340 345 353 358 357 358 359 360 360 361 360 361 361 360 361 360 360 361 360 361 362 362 363 364 365 366
319 320 322 325 324 325 326 327 331 335 346 359 357 358 358 358 359 361 361 361 359 357 356 359 360 361 361 363 363 363 364 363 363
320 322 323 324 324 323 325 326 326 327 334 348 354 356 358 360 362 359 360 361 361 359 354 357 358 359 360 361 361 362 361 360 359

GFSFLT1_925_thetae_063.txt.gz
Theta_e
353 353 353 353 352 350 351 351 351 351 354 358 357 355 353 349 350 347 347 349 348 348 346 346 353 357 355 356 358 355 356 355 355
351 353 353 352 352 350 351 351 352 352 354 358 358 355 356 356 351 347 345 348 349 352 348 347 347 351 356 354 353 356 355 354 356
348 353 353 353 353 351 350 351 351 352 353 358 358 356 357 356 355 352 349 351 355 351 350 349 350 349 351 354 354 353 356 353 354
345 351 351 352 353 352 350 350 351 352 353 355 356 357 357 355 355 352 351 354 354 353 353 353 352 352 352 352 353 353 356 354 355
340 343 348 350 351 353 353 353 351 351 351 352 355 356 357 356 356 353 352 353 354 355 356 355 355 356 354 353 351 352 356 356 353
340 342 346 349 350 353 353 354 354 352 351 351 352 355 355 356 356 356 353 355 354 355 356 357 356 356 357 355 352 352 356 357 356
337 342 346 345 349 351 352 354 357 356 352 351 351 352 353 354 356 356 355 354 356 356 357 358 358 357 357 357 355 352 352 355 357
337 339 341 343 344 351 361 358 359 357 353 353 351 352 352 354 357 356 356 354 356 356 358 358 359 359 358 358 356 354 352 353 355
342 342 339 340 345 349 352 355 360 359 357 355 353 354 353 353 356 357 357 356 356 358 359 359 360 360 360 359 355 352 351 350 351
341 341 342 344 345 346 349 352 355 358 359 356 355 357 355 355 356 358 358 357 358 359 360 360 361 361 361 361 359 353 351 349 348
342 342 343 344 344 344 345 348 351 355 357 359 358 357 360 357 359 360 360 360 360 361 361 361 362 362 361 362 361 357 353 352 349
340 343 346 346 345 345 345 345 346 351 355 360 360 362 359 361 360 362 362 362 362 362 363 363 362 363 363 363 361 358 354 354 352
337 338 340 344 347 349 349 349 348 347 352 356 362 363 362 362 361 363 364 364 364 364 364 364 361 362 363 363 363 361 358 355 355
333 335 336 334 343 355 356 354 351 351 351 356 359 361 362 363 363 364 365 365 365 365 365 361 363 363 363 362 361 363 360 357 356
327 331 333 332 337 348 362 357 355 358 355 356 358 360 361 363 364 363 364 365 366 366 366 365 366 364 365 362 364 362 362 361 359
323 325 328 328 329 335 340 354 356 360 356 360 359 361 362 362 364 365 363 365 366 365 365 362 363 363 361 359 358 360 360 359 359
321 322 325 326 327 329 330 332 342 351 361 359 362 362 364 363 364 364 363 364 364 363 362 363 361 361 361 358 355 353 357 359 359
322 323 324 323 324 326 327 327 330 334 343 358 360 362 362 363 362 362 363 362 362 361 360 359 359 355 354 353 356 357 359 361 363
322 323 323 324 323 324 325 325 326 328 332 346 359 361 362 361 361 362 362 362 359 359 359 359 358 358 357 361 358 359 361 362 364
322 322 322 322 323 323 324 324 324 324 328 333 349 361 362 362 361 361 363 362 362 361 356 357 359 359 360 360 361 360 362 362 363

GFSFLT1_925_thetae_069.txt.gz
Theta_e
349 351 348 348 347 347 346 347 349 349 350 351 352 347 345 349 346 345 348 353 354 354 353 353 351 356 354 351 350 352 352 352 349
354 352 349 346 349 347 347 348 348 351 351 350 353 350 345 347 348 344 345 348 353 352 352 354 350 352 355 351 351 349 354 352 350
346 347 349 349 349 349 348 347 349 349 352 351 353 352 349 345 349 345 343 345 349 353 349 350 352 353 352 353 352 353 353 352 352
343 345 348 350 348 346 346 347 348 349 353 352 353 352 353 348 346 350 346 348 346 349 349 349 349 354 352 357 357 354 355 354 353
345 348 350 346 349 344 341 343 349 349 351 354 354 354 354 354 348 348 350 349 344 348 348 350 356 355 354 354 353 354 357 356 353
346 344 347 342 340 335 337 341 345 351 350 355 355 356 353 356 355 348 350 348 346 342 345 348 350 355 355 355 355 354 352 354 354
344 345 345 343 338 340 339 344 347 352 351 353 356 357 357 355 355 355 348 347 345 347 344 351 349 350 357 352 353 352 352 354 354
345 347 345 345 345 344 348 348 351 350 353 352 356 359 359 358 357 356 356 352 350 344 353 349 356 355 353 358 355 354 354 352 353
342 344 347 348 347 349 351 349 342 347 350 353 353 358 360 359 358 357 357 357 355 353 347 358 353 353 355 355 357 356 355 353 353
341 341 340 340 343 347 347 345 346 344 346 354 354 354 359 359 359 359 358 358 356 356 352 351 359 358 356 356 355 358 358 357 354
337 336 337 338 337 338 345 344 341 346 351 352 354 354 356 358 359 359 359 358 358 356 356 354 353 355 357 359 358 357 359 358 357
332 330 332 334 336 336 340 346 348 344 339 351 349 351 355 357 358 359 359 358 358 358 357 358 356 358 359 360 360 359 358 360 357
327 327 328 331 333 333 335 340 339 347 338 338 341 349 357 357 357 358 358 359 358 359 357 357 359 358 359 360 360 360 360 359 359
323 325 327 329 328 329 330 331 332 338 343 350 351 354 359 358 357 357 358 358 359 358 358 357 357 359 359 360 361 361 360 360 362
321 323 326 325 325 327 327 328 328 331 334 335 340 350 360 360 360 357 359 359 359 359 359 359 359 359 360 360 361 362 362 361 360
321 323 324 324 323 324 325 325 324 326 327 330 335 342 354 360 362 360 359 360 360 360 360 360 360 360 361 361 362 363 363 363 362
320 322 323 324 323 323 323 322 322 324 325 328 332 338 350 361 362 364 360 363 362 362 362 362 362 362 362 363 362 363 364 365 365
319 321 323 322 323 322 321 321 321 321 324 326 329 333 346 363 363 365 364 364 365 364 364 364 363 363 363 362 363 363 363 365 365
318 320 321 321 319 318 317 317 318 320 323 324 326 330 343 357 364 366 365 364 361 366 366 365 365 364 364 364 363 364 364 363 365
317 319 318 318 317 315 314 314 316 318 321 322 324 327 332 342 360 365 366 366 364 358 357 365 366 365 365 364 364 362 362 364 361

GFSFLT1_925_thetae_072.txt.gz
Theta_e
349 347 345 346 345 342 344 343 345 345 348 348 348 347 347 344 345 346 347 350 352 352 352 351 353 355 355 352 345 349 351 351 350
350 350 348 348 348 344 345 345 344 346 347 347 348 347 346 347 345 345 346 350 352 351 351 350 351 354 356 354 350 349 351 351 351
347 351 349 348 349 348 346 345 346 346 347 348 348 347 347 345 345 345 345 345 349 354 352 350 351 352 355 354 350 348 350 350 349
344 351 349 349 349 348 348 346 346 347 347 347 349 349 348 346 345 347 346 346 345 349 354 353 353 353 350 355 352 349 350 350 351
344 348 349 348 349 349 348 346 346 347 349 348 348 350 349 347 345 344 347 347 344 345 348 352 351 349 352 353 352 351 352 351 352
345 345 345 345 344 345 347 347 346 346 348 350 349 349 350 350 347 344 345 347 345 344 345 350 353 349 350 354 351 354 354 353 353
344 343 346 345 342 343 342 340 344 344 347 350 351 350 350 351 351 347 343 345 347 345 346 346 349 353 353 352 352 354 355 354 355
344 347 348 347 345 344 343 343 340 344 348 349 352 351 352 350 352 352 348 343 345 345 345 345 345 348 352 355 355 354 353 352 351
343 344 342 341 344 348 347 345 345 345 348 349 353 353 353 353 351 353 353 350 345 345 343 344 346 343 347 350 354 353 353 352 352
338 340 340 339 339 340 345 347 344 344 344 345 346 352 354 355 354 353 354 354 351 347 346 343 347 350 348 355 353 354 354 353 352
329 333 335 337 336 338 343 342 342 346 343 345 346 346 353 357 357 356 355 354 355 353 351 348 346 350 351 351 354 355 355 354 354
322 325 329 332 333 332 337 333 335 340 346 348 346 346 346 349 358 358 357 356 355 355 354 353 349 348 353 356 354 352 351 352 355
321 322 328 328 328 328 329 329 330 335 341 343 344 342 344 346 348 357 358 357 357 356 355 355 354 352 350 351 355 357 356 355 355
320 323 325 323 325 325 327 325 326 329 332 335 337 342 343 348 350 355 357 357 357 357 357 356 356 355 354 354 355 354 354 356 357
319 321 323 323 323 324 324 322 323 325 326 327 331 338 341 343 346 355 356 357 357 357 356 357 356 356 357 356 356 357 357 357 357
318 320 321 322 323 322 321 321 320 322 323 325 328 332 336 342 348 352 356 357 356 357 356 357 357 355 355 357 357 357 358 358 358
315 318 319 321 321 320 319 317 317 318 320 322 324 327 331 339 343 351 358 356 356 356 357 356 356 357 356 356 357 358 359 359 360
314 315 318 320 319 317 316 315 315 317 319 320 323 325 329 335 340 348 359 357 358 357 357 357 357 357 357 358 358 358 359 360 360
314 314 317 319 318 316 314 313 314 315 317 319 320 323 326 329 333 340 358 360 358 359 358 358 358 358 358 359 359 360 360 360 361
313 316 315 314 314 313 312 312 312 313 314 315 316 319 324 327 330 337 353 362 357 356 358 361 361 360 360 361 361 361 361 362 362

GFSFLT1_925_thetae_075.txt.gz
Theta_e
351 350 349 347 344 340 342 343 342 345 345 345 345 344 344 343 342 343 346 346 349 349 350 350 350 352 352 352 347 350 347 349 350
352 352 348 348 346 341 341 343 342 345 346 345 345 345 345 344 343 343 343 345 347 351 349 350 350 352 352 353 352 346 350 349 349
347 350 347 345 346 342 342 342 343 343 346 346 345 345 346 345 344 343 341 344 346 349 351 351 351 351 351 352 353 352 348 351 351
342 347 347 346 346 344 343 342 342 343 344 346 346 346 346 346 345 344 342 343 344 345 349 352 351 351 350 350 353 354 351 349 351
342 346 346 346 347 347 344 344 343 343 344 345 345 345 345 346 345 343 343 342 342 344 345 346 353 352 350 352 352 353 352 349 349
344 345 347 346 346 345 345 344 344 345 344 345 346 346 346 345 345 344 343 341 340 342 344 345 346 351 353 352 352 350 352 350 349
344 345 344 343 341 342 342 341 343 345 346 345 346 347 347 347 345 345 344 343 340 338 340 343 344 345 351 351 349 351 351 351 351
341 341 340 342 343 343 344 344 343 341 345 346 347 346 348 348 347 346 345 344 343 340 338 339 341 344 348 352 352 351 352 350 352
335 338 340 338 339 343 347 346 345 342 343 346 348 348 347 348 348 348 347 345 345 343 341 338 341 341 345 346 353 354 352 351 352
325 328 334 335 335 336 340 340 339 343 344 345 348 350 349 349 349 350 350 348 346 344 343 343 342 341 343 345 344 348 353 354 354
321 323 329 330 330 329 332 331 332 337 344 343 344 346 349 351 351 350 350 352 350 348 345 345 344 343 343 341 342 340 340 347 352
320 321 325 326 326 326 326 327 326 333 340 346 345 346 346 350 353 353 351 351 352 352 349 347 346 346 344 345 345 343 341 345 353
318 321 323 323 323 324 324 324 322 328 330 334 334 339 343 345 349 355 355 354 353 353 353 352 350 349 347 347 348 347 346 345 349
317 319 322 323 322 323 323 321 320 323 326 326 327 330 334 338 340 343 348 352 356 355 354 354 353 352 351 349 349 351 351 350 350
315 316 320 321 322 322 322 320 317 319 320 321 323 325 330 333 337 340 344 351 354 356 355 355 354 354 353 352 351 350 351 352 353
313 315 316 318 320 321 320 318 316 316 317 319 320 323 326 329 333 339 344 348 355 356 356 356 355 354 354 354 354 353 353 353 353
310 312 313 316 319 320 318 318 315 314 316 317 320 321 323 326 330 334 341 346 355 355 356 356 356 355 355 354 355 355 355 355 355
309 310 311 314 317 318 317 316 315 313 314 315 317 318 319 324 327 330 333 339 353 355 355 356 355 355 355 355 354 354 355 356 356
308 309 310 312 316 317 316 315 314 313 313 314 314 314 317 321 323 327 331 337 352 357 356 355 356 356 355 355 355 355 354 355 356
307 308 309 313 315 314 313 312 312 312 311 312 312 313 316 320 322 326 329 333 341 358 356 356 356 355 355 355 355 356 356 356 356

GFSFLT1_925_thetae_078.txt.gz
Theta_e
350 352 349 348 342 340 342 341 340 342 344 345 345 345 343 342 344 343 344 346 347 348 347 348 349 350 351 351 350 349 348 348 346
347 351 351 347 346 340 342 341 341 341 342 343 344 344 343 343 344 343 343 346 347 347 348 348 349 349 350 351 350 349 348 347 347
342 342 349 347 346 341 341 342 341 342 342 342 342 342 342 342 342 343 342 344 346 346 346 349 349 349 351 350 350 350 350 347 350
343 342 348 347 346 343 340 341 341 341 343 344 343 343 344 343 343 343 343 341 344 344 345 346 350 350 351 350 349 347 350 351 348
342 343 344 344 344 343 341 340 342 341 342 344 344 344 344 344 343 343 344 343 340 341 343 344 346 351 352 351 350 350 350 351 351
339 342 342 342 344 344 342 342 341 341 342 343 344 344 344 345 345 344 344 344 343 340 341 343 344 345 350 352 351 351 352 352 352
339 339 339 343 344 341 342 341 343 343 342 343 344 344 345 344 344 344 344 344 342 343 341 340 342 344 345 348 350 352 351 350 351
329 336 334 335 336 344 343 345 343 342 344 344 344 344 345 344 344 344 344 344 343 342 341 340 340 341 343 344 345 349 350 349 351
326 329 330 330 331 329 335 333 335 339 343 344 345 344 345 346 345 345 344 344 343 343 343 342 340 339 341 342 344 345 348 350 350
322 324 327 327 328 327 328 329 328 331 338 344 344 346 345 345 346 347 346 346 344 344 344 344 343 341 339 340 341 342 344 346 351
318 319 323 324 324 326 324 324 323 331 335 343 344 344 347 346 346 347 347 347 346 345 344 343 344 344 343 341 338 337 339 342 345
314 316 319 322 322 323 323 322 320 326 330 334 335 338 343 347 348 348 348 348 349 348 346 345 344 344 344 344 343 342 337 338 342
312 314 316 320 321 322 322 322 319 320 325 326 327 329 333 338 343 348 350 349 349 349 349 348 346 345 345 346 347 346 345 344 344
308 310 313 315 318 320 320 321 319 317 319 320 322 326 329 332 336 338 341 349 352 350 351 351 350 348 348 348 349 348 348 348 346
306 308 310 312 314 316 318 320 318 316 316 316 319 322 326 328 332 335 337 340 343 349 353 352 352 352 351 350 351 352 351 350 349
306 307 309 310 311 312 316 319 318 316 315 315 317 319 322 323 326 331 335 338 341 345 350 354 353 353 353 353 352 352 352 352 351
305 306 307 309 310 310 313 316 317 315 314 314 314 316 318 319 324 327 331 333 338 340 350 355 354 354 354 354 353 353 353 352 351
305 306 307 307 308 309 310 314 316 315 313 312 313 314 315 316 320 324 326 330 334 338 343 353 355 355 355 355 354 354 354 354 353
305 306 306 307 307 308 309 312 315 314 311 310 311 312 313 314 317 321 324 327 331 336 341 348 353 355 355 355 355 354 354 354 354
306 307 307 307 306 306 308 313 313 313 310 308 307 310 311 313 315 319 322 325 327 333 339 344 352 355 355 355 355 355 355 354 353

GFSFLT1_925_thetae_084.txt.gz
Theta_e
348 349 353 353 350 350 349 348 348 349 349 352 353 352 352 353 354 352 352 350 347 350 350 351 352 355 353 353 353 353 353 350 349
352 350 349 353 351 350 349 349 349 350 351 353 353 353 353 354 354 353 350 348 351 350 349 351 354 355 351 352 353 353 355 351 353
350 352 350 352 353 352 350 349 349 350 351 352 353 352 352 353 353 354 353 351 351 350 348 351 352 356 356 353 354 354 355 352 354
345 347 352 352 353 352 351 350 350 350 351 352 353 352 351 351 352 352 353 352 351 351 351 352 353 356 355 353 355 356 356 353 353
338 340 345 341 342 349 352 350 350 350 350 350 351 352 352 352 352 352 351 352 350 350 351 351 354 354 354 354 353 355 356 354 350
334 333 335 333 337 338 341 345 349 350 350 349 349 350 351 351 352 352 352 350 351 350 351 351 351 353 355 354 352 354 357 356 355
335 331 330 331 330 330 329 335 341 343 349 349 349 350 350 350 349 350 350 349 349 351 351 351 350 351 353 354 354 352 354 355 357
336 335 332 329 329 328 328 328 328 335 340 345 349 349 350 350 351 351 350 349 348 349 351 352 352 350 350 351 352 353 353 353 357
332 332 332 331 329 327 327 326 326 326 332 334 339 348 350 350 351 351 352 352 352 350 350 352 352 352 351 349 346 347 350 353 355
327 328 328 328 328 327 327 327 326 326 326 325 331 337 348 350 351 351 352 352 353 353 352 351 352 353 352 352 350 345 345 348 350
320 319 320 322 322 323 324 325 326 326 325 324 322 325 330 335 343 349 351 352 352 352 353 353 353 353 353 353 352 351 347 344 348
317 316 316 315 316 317 320 321 322 325 326 325 324 323 322 325 329 336 343 351 353 353 353 353 353 353 353 354 354 352 350 347 347
315 314 314 314 314 314 316 317 318 321 324 324 324 323 324 323 324 329 332 342 350 351 353 353 353 353 353 354 354 354 352 349 348
313 312 312 312 313 314 315 315 316 317 320 322 323 322 322 324 323 322 327 332 339 348 353 354 354 355 354 354 354 354 353 352 350
312 312 312 312 312 312 313 314 315 316 318 320 320 321 322 322 322 325 325 328 332 336 344 350 352 354 355 357 355 355 353 352 351
311 311 311 310 311 311 312 312 314 315 316 316 319 320 321 322 320 321 323 325 330 333 337 344 348 346 348 355 356 356 357 355 353
310 310 310 309 310 311 311 311 312 313 313 314 316 319 319 319 320 318 320 323 325 330 335 339 343 346 348 350 353 356 357 357 355
308 307 308 307 308 310 311 312 312 312 312 313 314 317 318 317 318 320 318 319 322 325 327 329 333 338 344 346 349 351 354 355 357
307 306 306 307 307 307 308 309 311 313 313 312 313 316 316 316 316 317 318 319 319 321 322 324 324 327 329 333 335 340 342 346 349
306 306 306 305 305 306 307 308 309 312 313 313 313 314 316 315 315 315 317 318 320 322 322 321 321 325 328 334 338 340 341 343 349

GFSFLT1_925_thetae_087.txt.gz
Theta_e
349 350 353 353 352 350 351 348 345 347 350 353 356 355 355 356 356 353 350 352 350 347 350 350 358 357 355 354 354 353 354 353 350
358 350 354 354 353 350 350 350 347 347 350 353 356 356 355 356 356 356 350 349 351 350 350 351 353 353 354 354 354 354 354 353 352
354 355 351 355 353 350 351 350 349 348 350 353 356 357 356 356 356 357 355 352 351 350 351 350 350 354 355 355 354 354 354 353 353
345 352 354 356 353 351 351 351 351 351 351 352 355 357 356 355 355 356 357 355 354 352 352 353 353 356 356 357 356 356 355 355 355
342 343 345 343 345 345 349 350 349 350 352 352 353 355 356 355 354 355 355 356 355 354 353 352 352 354 355 354 356 356 356 355 350
337 339 341 338 338 337 337 342 347 346 348 350 352 353 354 355 355 355 354 354 355 354 353 353 351 352 355 355 354 354 356 357 355
335 334 336 336 335 333 333 333 335 340 341 345 349 350 352 353 355 355 355 355 355 354 354 354 354 351 353 356 356 354 354 356 356
337 336 334 332 332 331 330 330 330 332 335 339 343 350 352 351 354 354 354 355 355 354 353 354 355 354 352 352 353 352 354 354 355
334 334 333 333 332 331 330 330 328 326 328 330 335 340 342 348 351 351 354 356 355 355 353 353 355 355 354 353 350 346 348 354 354
330 330 330 330 329 328 329 329 330 329 326 324 324 329 330 337 341 346 350 351 353 356 356 355 355 356 356 356 355 350 345 345 350
324 324 323 323 322 322 324 325 326 328 330 328 325 325 326 325 332 336 339 346 353 353 353 355 356 355 356 357 357 355 352 346 345
322 321 320 320 319 320 321 321 321 322 326 328 329 328 327 327 325 327 332 338 339 348 352 353 354 355 356 357 357 356 355 352 349
318 318 317 317 317 318 319 319 319 320 322 324 326 327 327 328 329 328 325 327 333 338 344 352 354 354 356 356 356 357 356 355 353
317 316 316 315 316 316 317 317 318 319 320 322 323 323 324 326 327 327 328 327 327 333 337 342 349 354 355 355 355 355 356 356 355
315 315 315 315 315 315 316 316 316 318 319 320 320 321 323 324 325 326 326 327 329 331 335 337 344 349 351 353 355 353 356 356 355
314 314 314 314 313 314 315 315 316 316 317 317 318 319 320 322 323 323 325 325 328 328 334 338 341 344 348 351 351 351 353 355 356
313 312 312 312 312 313 314 313 314 315 316 316 316 317 318 319 321 321 320 324 324 325 327 331 334 336 340 337 340 351 351 352 349
311 310 310 310 311 310 310 310 311 313 314 315 316 316 316 317 319 319 320 320 322 323 323 324 325 326 328 330 333 335 336 334 336
310 310 310 310 309 309 309 308 309 310 311 313 316 316 316 316 317 318 318 318 318 319 321 321 322 322 321 323 325 327 329 334 337
309 310 309 308 308 308 308 307 307 308 308 310 311 313 315 315 315 317 317 318 318 319 319 320 321 322 323 323 325 329 330 331 333

GFSFLT1_925_thetae_093.txt.gz
Theta_e
350 349 346 346 347 347 346 344 349 351 350 352 351 353 348 348 349 351 350 349 347 350 350 351 351 352 352 352 351 352 352 352 350
350 352 355 350 346 347 347 344 348 351 351 350 351 356 351 350 352 347 352 351 351 351 351 352 353 351 351 353 352 352 354 352 353
348 350 353 352 351 350 348 349 349 353 354 354 350 351 355 354 352 347 350 352 354 351 350 350 352 351 353 354 354 352 352 351 352
344 345 346 350 346 345 347 349 348 348 347 349 353 354 354 355 353 354 350 350 351 354 352 350 345 348 352 350 353 354 353 353 352
341 342 341 342 344 344 344 345 347 349 345 346 347 351 354 356 357 356 353 351 355 352 351 352 352 349 343 350 350 354 354 352 350
339 338 338 337 337 338 339 340 342 344 342 343 343 345 349 356 358 358 355 354 354 355 354 351 351 351 353 352 352 355 354 353 350
338 336 336 335 332 332 335 335 336 338 340 341 345 343 345 348 351 355 357 358 356 355 355 355 354 353 353 354 355 354 354 356 353
336 337 335 334 334 332 332 332 331 333 337 339 341 341 344 338 347 350 349 349 355 355 355 357 356 354 352 355 356 354 352 353 355
336 334 333 333 333 333 331 331 330 330 332 334 336 339 341 343 344 345 341 335 351 355 355 356 356 357 356 353 353 356 356 354 352
329 327 327 326 326 325 325 331 330 329 329 329 329 330 331 336 338 341 341 342 346 350 352 354 354 354 354 356 357 356 353 353 352
326 324 322 322 324 324 324 322 324 332 332 331 331 331 331 331 331 331 331 331 336 340 343 348 352 354 354 355 354 355 356 355 353
322 320 320 320 323 321 321 321 322 323 327 325 324 325 327 329 329 328 331 330 329 329 333 339 342 346 350 353 353 354 355 355 357
319 318 318 318 320 319 318 319 320 321 323 322 322 322 322 325 326 326 330 328 327 327 330 331 334 339 342 345 348 351 352 352 354
318 318 317 317 318 317 318 318 319 320 320 320 319 319 319 321 322 324 325 325 326 324 326 330 332 338 341 343 348 349 349 350 352
317 317 317 316 316 318 316 316 317 316 316 316 316 318 319 318 318 318 320 323 325 322 324 326 330 336 338 339 340 339 342 348 350
315 315 315 314 314 314 313 313 312 313 313 313 314 315 317 319 320 318 317 318 319 321 324 326 326 332 335 333 330 327 335 337 341
313 313 312 313 313 312 313 311 311 310 310 309 309 310 312 314 316 316 318 319 320 322 323 321 323 322 322 320 320 320 322 325 325
312 312 312 312 311 311 310 310 310 309 308 308 308 308 309 309 311 311 312 315 316 318 319 319 317 317 319 322 321 320 321 322 322
311 311 311 311 310 310 310 308 308 308 307 307 307 307 308 307 307 309 311 312 313 314 315 316 317 319 319 318 318 320 321 321 321
311 311 310 310 309 309 308 308 307 307 306 306 305 306 306 306 306 307 307 308 310 311 312 313 313 314 315 316 316 317 319 320 320

GFSFLT1_925_thetae_096.txt.gz
Theta_e
350 349 347 347 345 345 346 348 349 351 349 348 348 345 347 351 350 348 346 350 350 349 349 351 350 352 352 349 346 349 348 350 351
349 351 349 347 346 346 345 346 349 350 350 349 348 348 347 349 349 348 349 349 348 346 349 351 350 350 350 352 350 350 351 352 351
350 350 353 352 349 348 346 345 349 350 351 352 351 350 350 346 348 347 343 348 350 351 350 350 349 352 350 350 352 352 352 352 350
347 346 348 347 347 348 348 347 347 348 349 350 351 351 352 349 348 348 345 345 353 352 351 350 350 352 350 350 353 354 352 351 351
342 342 343 344 345 345 346 347 347 345 346 347 349 350 351 351 350 348 350 347 350 351 352 349 351 347 348 350 351 353 354 353 352
341 339 337 337 337 339 341 344 345 346 345 344 344 345 347 349 350 350 350 350 349 350 353 351 350 349 348 348 349 350 352 354 352
337 336 333 333 333 334 335 339 341 342 343 344 344 344 342 343 345 349 352 353 351 350 352 353 351 351 351 351 350 350 352 354 353
336 336 333 330 330 330 330 333 336 338 340 343 343 343 341 341 341 345 339 338 344 351 352 352 353 354 353 352 353 353 354 354 354
336 335 335 333 330 330 330 330 332 334 335 338 341 341 341 341 341 339 342 340 340 348 350 353 352 355 355 354 352 353 354 355 355
329 327 326 325 325 326 330 329 330 330 331 331 332 333 336 339 340 340 339 341 340 344 347 349 352 353 355 355 354 355 355 354 353
325 323 322 321 322 321 322 330 331 331 329 329 330 331 331 330 331 332 335 335 333 335 337 340 343 346 351 353 353 354 354 355 354
318 316 319 320 319 319 321 325 325 323 322 322 322 322 325 326 326 328 331 327 326 326 331 334 335 338 342 345 349 351 352 353 354
316 317 320 318 318 318 319 320 320 319 318 319 319 319 319 321 322 324 325 325 326 327 325 329 330 336 339 340 343 345 345 347 351
316 316 317 318 317 317 317 318 317 316 315 315 317 319 319 319 317 317 318 321 323 324 321 324 326 331 339 344 340 338 340 344 348
314 315 315 315 314 313 313 314 314 312 311 312 314 316 317 317 318 319 318 318 318 319 322 324 326 329 336 335 329 323 322 326 336
312 313 313 313 312 312 312 311 311 310 309 309 309 311 313 313 314 315 315 316 317 318 318 318 317 317 318 319 321 321 320 321 323
311 312 312 312 312 310 310 310 309 308 308 307 307 308 308 308 309 310 311 312 313 314 314 314 314 314 314 317 317 318 319 320 321
310 311 311 311 311 310 309 308 308 307 306 307 306 306 306 305 306 307 308 308 309 311 312 311 312 313 313 314 315 316 316 317 319
311 311 310 310 310 309 308 307 307 306 306 305 305 305 306 306 305 305 305 305 305 305 306 307 309 310 311 312 313 314 316 317 317
310 310 310 309 309 308 308 307 306 305 305 305 304 304 303 303 302 302 302 303 304 304 304 305 305 306 307 308 309 310 313 315 316

GFSFLT1_925_thetae_102.txt.gz
Theta_e
342 342 345 345 345 343 343 345 344 343 343 346 345 345 345 346 348 346 346 347 347 348 347 348 349 349 350 349 348 346 346 347 348
347 343 344 343 344 344 344 344 347 345 344 346 346 346 347 348 348 347 347 346 346 348 348 348 348 350 349 349 349 346 347 349 348
349 350 347 346 342 344 345 345 346 348 345 345 345 347 349 348 348 347 347 348 348 348 349 348 348 348 348 348 349 349 348 348 349
348 348 349 348 346 344 345 345 345 347 348 346 343 345 345 345 346 347 348 348 347 347 348 349 349 349 349 349 349 350 351 350 349
346 346 347 348 347 345 343 345 347 349 350 346 345 347 347 347 347 347 347 347 347 346 346 348 348 348 350 349 350 350 350 351 351
343 343 343 342 344 346 345 346 346 345 345 345 344 346 348 349 350 350 347 347 347 347 348 348 348 347 349 349 349 350 349 348 350
340 340 340 339 338 340 346 346 345 336 343 342 343 343 343 341 342 342 344 345 347 348 349 348 346 348 349 349 348 346 347 347 348
337 337 337 336 335 335 338 342 343 343 344 344 344 343 343 342 341 340 340 340 341 341 346 349 350 348 351 350 349 349 349 349 348
336 334 333 332 332 333 334 334 336 338 340 342 343 343 343 342 340 340 339 338 339 341 341 341 344 348 350 349 350 351 352 352 352
333 332 331 331 330 330 331 330 330 331 333 336 337 337 338 339 339 338 336 336 336 336 338 340 340 341 344 346 348 350 350 351 351
329 327 327 328 328 324 322 322 322 322 324 324 325 327 331 332 332 332 333 329 329 330 332 333 337 337 338 340 342 344 345 346 348
323 321 321 323 322 320 319 319 320 320 319 319 319 318 320 321 322 325 325 324 323 322 325 328 331 337 342 341 333 331 334 344 345
318 319 321 319 318 318 318 317 317 317 316 316 316 317 317 317 318 319 320 320 321 323 325 330 336 336 334 330 326 325 327 326 325
316 318 318 317 315 315 316 316 316 314 314 313 314 314 315 315 316 316 317 318 318 319 321 324 323 319 318 319 318 318 320 322 321
315 314 314 314 314 312 312 313 314 310 309 310 312 313 313 313 314 314 315 316 316 316 316 316 316 316 315 315 315 316 316 316 317
313 311 312 312 312 311 311 311 310 308 307 308 309 309 309 309 310 311 312 312 312 312 313 313 312 312 312 311 311 313 313 314 315
311 310 310 310 309 308 307 307 307 306 306 306 305 305 305 305 305 305 306 307 307 308 307 307 307 307 307 307 308 309 309 310 311
310 310 309 309 308 307 306 306 306 305 305 305 305 304 302 301 302 302 302 302 302 303 304 304 304 303 302 304 304 303 303 302 302
310 309 309 308 308 307 306 306 305 304 304 304 303 301 301 301 301 301 300 300 300 299 299 300 300 300 301 302 300 300 299 299 299
309 310 309 309 308 308 307 306 304 304 302 301 301 300 300 300 299 298 297 297 296 296 296 296 295 295 296 295 295 296 296 296 297

GFSFLT1_925_thetae_105.txt.gz
Theta_e
348 346 345 348 347 347 347 347 347 347 348 349 349 349 348 347 347 347 346 345 347 351 351 349 347 347 346 347 349 345 346 350 352
348 345 346 347 347 347 346 345 347 347 347 348 349 348 349 346 346 347 348 346 347 348 347 349 349 349 349 348 349 349 345 351 348
348 345 347 347 346 347 346 345 347 347 347 346 346 348 349 346 347 347 347 347 346 347 348 349 349 348 348 348 349 349 347 349 347
350 347 348 348 347 347 345 345 346 348 349 348 344 345 349 348 346 349 347 348 347 347 348 347 348 348 348 348 348 349 350 350 348
352 349 348 349 348 347 347 346 345 348 348 348 346 344 344 348 347 345 347 348 347 347 344 346 348 348 348 348 351 351 350 353 353
347 348 349 348 349 348 347 346 345 346 347 348 348 348 345 349 345 346 346 348 346 345 346 347 346 348 346 347 347 349 349 348 350
346 345 345 344 348 347 345 345 345 344 344 344 344 345 344 345 347 347 347 346 346 347 347 348 346 347 347 348 348 347 347 348 348
343 343 342 340 341 347 346 345 343 340 342 342 342 342 341 341 340 341 341 341 341 343 345 347 347 346 346 348 349 348 349 349 351
341 340 338 336 337 338 339 343 340 340 342 340 342 342 342 341 340 340 339 339 340 340 341 342 346 348 349 349 351 349 349 350 354
339 337 335 334 334 332 331 332 336 336 339 341 342 342 341 340 340 339 338 337 337 337 338 339 340 342 346 345 345 345 348 348 351
334 333 333 330 326 324 324 325 327 328 331 334 334 334 334 334 335 334 333 333 333 334 334 335 339 342 343 338 336 342 345 345 348
334 333 326 322 321 321 320 320 320 322 321 323 326 324 325 326 326 326 327 324 325 328 331 332 339 340 334 330 328 328 336 336 336
328 325 322 320 319 319 318 319 320 319 317 317 316 317 318 319 321 324 324 325 324 326 330 332 334 330 320 318 322 324 323 324 327
325 321 318 317 316 315 315 315 316 315 315 315 314 315 315 317 317 318 318 320 321 328 325 323 321 318 316 314 314 316 317 318 318
323 321 318 316 317 316 314 314 315 314 314 313 313 314 314 314 315 315 316 316 316 317 318 318 317 316 315 313 311 312 313 314 315
322 321 319 317 315 313 312 312 312 312 311 311 311 311 311 311 312 312 312 313 313 314 315 314 314 315 314 312 311 309 311 311 311
318 317 316 314 313 312 310 310 310 309 308 309 309 309 308 308 309 309 309 309 310 310 310 310 310 309 308 309 307 303 302 303 303
312 313 313 313 312 311 310 309 308 307 307 307 306 305 305 305 305 305 305 304 306 305 303 305 305 305 305 304 301 297 297 298 299
313 311 310 311 311 310 308 308 307 307 307 306 305 304 304 303 303 303 303 302 301 299 298 298 298 298 299 299 296 296 296 297 297
313 311 311 310 309 309 308 307 306 306 304 304 304 303 303 301 301 301 301 301 301 299 296 295 295 295 295 295 295 295 296 296 298

GFSFLT1_925_thetae_108.txt.gz
Theta_e
349 348 346 346 348 348 350 349 350 350 352 353 353 353 351 352 351 349 349 350 351 350 351 350 351 351 350 351 354 353 354 351 351
350 349 347 347 347 348 349 349 350 350 351 353 352 351 353 351 351 349 350 350 350 352 352 352 353 352 352 352 351 353 354 350 352
352 349 349 347 347 349 349 350 350 350 350 352 351 350 351 349 350 352 350 349 348 351 353 354 353 352 352 353 354 355 353 351 351
353 351 349 349 349 349 350 349 348 349 351 352 351 350 350 350 350 349 352 350 349 351 351 350 352 352 352 350 352 354 354 353 352
352 351 348 350 349 349 348 350 350 348 350 351 352 351 350 352 350 349 348 350 349 351 350 351 351 351 352 352 353 354 353 353 351
353 351 350 350 349 351 351 350 350 351 351 352 352 351 350 351 351 348 349 349 351 350 351 350 351 350 351 351 352 352 351 353 353
354 354 353 353 354 349 349 349 346 346 343 343 349 351 351 352 351 348 350 351 352 351 349 350 350 350 350 349 352 351 352 352 351
350 351 348 349 352 351 348 348 345 344 344 344 345 347 349 350 351 351 351 351 352 352 353 351 352 351 351 351 351 350 354 354 354
348 348 346 343 344 350 349 347 345 344 344 343 343 342 342 343 344 346 347 348 349 349 350 352 353 353 352 352 351 349 349 350 355
345 344 343 340 335 339 347 346 342 343 344 344 344 343 342 341 341 340 339 339 344 346 347 348 349 351 351 345 342 346 347 347 351
342 340 336 332 330 327 334 337 339 337 339 338 338 340 341 340 340 338 337 337 338 340 343 345 346 345 341 335 334 344 345 347 353
339 335 331 327 324 323 324 325 326 328 329 329 330 331 333 334 336 335 336 335 335 335 336 343 340 336 333 326 326 333 338 342 343
334 329 323 321 321 320 321 320 322 324 323 323 323 323 325 327 328 330 330 331 332 336 333 334 332 325 321 318 318 320 326 330 335
330 325 322 320 318 317 317 318 318 316 317 316 316 318 320 322 326 327 328 329 333 331 326 322 320 319 316 317 316 317 317 317 319
326 324 322 320 317 316 317 317 318 317 316 316 317 316 316 318 320 321 323 325 326 325 323 323 322 321 320 317 314 315 315 314 314
323 320 320 318 317 316 317 317 318 318 317 318 319 319 319 319 319 320 321 321 322 322 323 322 321 321 320 318 315 312 309 306 307
323 320 318 317 317 317 316 316 317 316 316 316 316 316 316 316 317 317 316 316 317 318 319 318 317 316 315 312 308 302 301 303 305
324 322 320 318 317 317 316 314 313 313 313 313 313 313 313 312 313 313 312 308 310 307 304 310 312 311 309 309 305 299 297 298 299
317 319 318 317 317 316 315 313 312 312 312 311 310 310 309 309 309 309 307 305 300 298 298 298 299 303 304 298 296 296 296 297 298
315 315 316 316 315 314 313 311 311 311 311 310 310 309 308 306 306 306 306 305 303 300 296 295 296 296 296 296 296 296 297 299 301

GFSFLT1_925_thetae_111.txt.gz
Theta_e
349 348 348 347 347 348 347 347 346 346 351 353 353 351 351 352 352 350 351 351 350 348 350 348 353 352 354 353 354 354 355 353 353
348 350 347 347 347 348 347 348 347 348 352 353 352 351 351 352 352 351 352 352 354 352 352 349 352 350 351 353 354 354 355 352 352
349 349 349 348 345 345 350 347 349 349 351 352 352 350 351 351 350 351 351 352 352 352 351 356 354 352 352 353 354 354 354 352 353
351 350 350 349 345 347 348 349 349 350 351 353 353 351 351 350 348 348 350 351 351 353 353 355 355 354 353 354 353 353 354 355 353
352 351 349 348 346 349 351 353 354 354 352 353 354 353 352 352 352 349 347 349 351 351 353 354 354 354 355 353 354 353 355 353 352
353 354 352 350 350 353 354 352 354 353 352 353 354 353 353 352 353 351 349 347 348 350 354 354 353 354 354 355 355 356 356 355 354
354 355 355 352 351 352 352 354 354 355 354 354 353 352 352 353 353 353 351 349 348 349 351 353 353 354 353 353 353 355 354 354 354
357 358 355 354 354 353 353 353 351 349 346 344 344 343 346 351 353 353 352 353 351 350 349 351 351 352 352 353 352 353 354 354 354
355 354 352 355 354 352 351 352 349 346 346 347 345 346 347 348 350 351 353 352 352 351 351 352 352 351 351 352 349 348 347 348 353
351 351 347 346 349 350 352 350 348 349 348 347 347 346 345 346 345 347 347 348 349 350 350 351 351 353 351 347 346 345 346 347 348
349 346 343 340 334 340 346 348 347 346 346 346 347 346 344 342 340 340 340 340 341 343 347 348 350 345 341 336 338 344 345 347 354
344 342 336 333 329 328 333 338 340 341 343 341 339 341 341 340 340 340 339 337 337 338 340 343 340 337 331 326 331 340 343 348 348
339 337 330 325 323 322 323 325 330 329 327 328 327 330 334 336 336 336 339 340 340 339 337 334 333 329 324 320 321 328 335 336 340
332 327 323 322 322 319 319 320 322 319 320 319 321 324 327 330 332 334 334 335 337 332 329 326 325 324 322 320 318 318 320 322 327
326 323 321 319 318 319 319 318 318 317 317 317 317 319 322 324 326 329 332 333 332 329 325 323 321 322 324 321 317 314 315 316 317
325 324 321 320 318 317 318 319 317 317 318 319 320 319 320 321 322 325 327 329 329 328 328 330 330 328 325 322 317 311 307 308 309
328 325 323 321 320 318 318 319 318 317 318 319 320 320 321 321 321 321 322 323 324 324 324 325 324 323 322 319 313 307 305 305 307
322 320 319 320 319 319 317 317 316 317 317 318 319 319 319 319 318 319 313 312 313 311 311 311 318 315 314 312 310 300 298 299 301
322 320 319 318 317 318 317 316 315 314 315 315 315 315 315 315 315 314 312 309 302 299 300 303 306 306 304 300 298 298 298 299 301
320 320 320 318 317 315 314 314 314 315 314 314 314 313 312 311 312 311 310 307 305 301 296 297 297 298 299 299 297 298 300 302 303

GFSFLT1_925_thetae_114.txt.gz
Theta_e
349 348 349 349 345 348 347 349 350 351 356 355 352 353 352 352 352 352 352 351 351 347 351 351 352 351 353 352 352 354 355 354 351
350 350 349 347 351 349 348 347 348 356 356 354 354 353 352 351 353 351 351 350 348 343 353 351 354 352 353 351 351 354 354 353 352
350 348 348 348 348 349 341 344 347 354 355 356 354 352 353 351 353 352 353 353 352 353 351 344 335 352 350 352 352 350 353 352 353
349 345 346 350 348 349 347 348 349 355 354 354 353 353 351 351 350 350 352 352 353 353 350 343 352 354 353 353 353 350 353 353 350
352 349 350 352 350 348 347 351 352 354 353 352 349 350 348 352 348 350 351 350 352 352 352 355 352 354 353 355 354 353 354 352 353
352 351 350 351 348 351 352 354 347 345 341 353 354 350 353 354 354 349 349 349 349 350 354 354 354 353 354 354 352 353 352 354 354
352 351 354 351 356 353 342 340 355 355 356 355 356 355 354 354 353 353 351 350 348 347 351 352 353 353 353 353 352 353 353 355 353
355 356 355 353 354 356 356 356 355 353 353 352 352 351 351 352 351 351 352 352 350 348 350 352 353 352 352 353 353 352 351 352 351
361 356 353 355 355 354 354 354 352 351 349 347 345 343 344 343 343 347 348 351 350 351 349 349 350 351 352 351 349 348 348 349 343
357 354 355 353 352 354 354 352 351 349 348 348 348 348 350 350 349 347 347 347 350 350 350 351 351 351 350 348 346 345 347 347 347
351 350 347 343 343 344 351 351 349 349 349 348 348 347 346 345 343 343 342 342 344 347 348 349 345 342 341 338 341 344 345 345 349
344 343 339 334 330 333 338 344 347 347 346 345 346 346 345 344 344 342 340 340 339 340 342 342 339 335 330 330 335 337 341 348 350
339 335 332 329 326 328 331 333 336 335 334 334 332 336 338 341 341 341 342 340 338 337 335 335 336 331 327 324 325 328 332 340 346
331 329 325 323 322 321 323 326 328 324 325 325 328 331 333 334 336 337 338 340 339 335 332 330 327 325 323 320 320 320 321 327 330
325 322 323 322 321 320 320 321 321 319 320 322 325 327 329 329 332 334 335 334 331 331 330 328 325 323 322 321 318 316 316 317 318
324 321 319 320 321 321 320 319 319 320 320 319 321 322 323 325 328 330 330 330 329 327 326 326 327 325 325 320 315 311 309 312 310
324 323 321 320 319 320 320 319 319 319 320 320 320 320 320 323 323 323 326 328 326 322 321 328 328 326 325 321 313 309 307 307 308
325 323 321 321 320 320 319 318 318 318 319 320 320 320 321 320 320 319 315 313 313 312 312 316 318 315 315 315 310 301 299 300 302
320 321 319 320 320 319 318 317 317 317 319 320 320 319 319 319 319 317 313 309 305 305 306 309 312 309 307 307 302 299 300 302 304
319 319 319 319 317 317 316 316 317 316 316 315 315 316 314 314 316 314 311 308 304 301 297 299 303 303 301 300 299 299 302 304 306

GFSFLT1_925_thetae_117.txt.gz
Theta_e
347 347 345 345 342 348 348 352 352 353 350 348 349 348 352 349 347 345 350 351 351 350 349 348 352 350 351 353 352 351 354 351 351
347 346 345 346 348 346 350 348 349 353 352 350 350 350 353 351 351 352 352 352 350 347 349 350 352 350 349 350 352 351 352 352 351
347 348 347 346 348 347 348 348 347 354 351 352 349 349 352 350 351 351 351 349 348 349 351 351 350 352 353 350 351 352 352 352 352
345 348 345 345 348 347 347 348 347 353 354 352 351 352 351 351 348 350 351 352 351 352 350 349 337 350 351 350 353 350 353 350 350
344 347 345 342 346 348 345 344 349 356 355 352 352 353 351 350 350 351 351 351 352 353 352 344 348 350 353 353 352 353 352 354 349
347 344 346 345 346 348 349 351 352 354 353 355 353 354 351 352 349 350 350 351 351 350 352 350 352 351 353 352 355 353 352 351 352
348 347 345 348 348 348 349 349 352 349 352 352 351 352 350 349 350 349 353 351 350 349 351 352 353 354 352 353 351 351 353 351 352
350 350 348 350 350 346 347 348 350 348 345 341 346 341 340 349 349 347 350 351 349 350 350 351 351 351 352 350 352 352 351 350 351
351 353 353 354 347 345 344 344 343 348 353 347 349 344 348 347 347 349 349 349 350 350 347 350 348 352 350 349 348 348 349 345 346
354 349 350 351 352 349 344 344 345 350 350 349 346 345 345 345 345 345 345 345 346 348 348 348 349 349 347 344 344 344 346 346 345
349 346 342 339 339 345 351 351 350 348 348 347 347 349 348 346 345 345 345 345 344 346 347 345 347 343 339 337 338 342 344 346 349
340 336 332 331 332 335 344 350 349 349 348 349 348 346 344 343 342 342 341 341 340 335 342 338 331 334 335 334 332 335 345 348 347
332 330 329 327 328 330 335 338 345 345 342 344 343 344 343 343 342 341 340 338 338 336 335 335 333 327 324 324 329 331 338 345 337
327 325 324 324 324 324 328 332 337 334 334 333 335 339 339 340 340 340 341 339 338 335 333 331 328 325 320 320 320 321 327 333 331
324 324 322 321 321 321 323 327 331 327 327 328 331 333 334 335 335 335 338 337 334 333 332 329 326 323 320 319 317 315 315 318 321
322 321 321 321 321 320 320 321 323 323 323 325 328 329 331 332 333 332 331 331 330 329 328 325 324 323 318 314 313 312 312 310 309
320 319 320 321 320 320 320 320 319 319 321 322 323 324 325 326 328 328 329 327 326 326 325 325 325 325 318 314 313 306 306 308 308
323 321 320 320 320 319 319 319 320 319 318 318 320 321 321 320 317 317 318 317 315 313 313 316 318 320 318 315 311 301 301 302 304
322 322 322 321 319 318 318 318 318 319 320 319 321 321 319 320 318 315 314 313 306 307 307 307 311 310 312 311 304 300 301 305 309
319 319 320 319 319 318 317 317 317 317 318 320 320 318 319 319 316 314 311 308 306 303 301 304 305 305 301 300 300 301 305 306 307

GFSFLT1_925_thetae_123.txt.gz
Theta_e
347 346 345 343 342 345 347 347 347 347 348 348 348 347 348 347 346 346 347 348 349 348 349 349 349 349 350 347 345 350 351 352 350
347 347 344 343 343 344 347 348 347 347 347 347 348 347 345 347 347 347 347 348 349 349 347 347 347 349 350 349 349 349 351 352 349
347 346 346 344 344 345 345 347 348 348 347 346 346 346 346 347 348 348 347 348 349 348 348 348 349 348 349 350 350 350 350 350 351
346 346 346 343 343 346 346 346 347 348 348 348 347 348 349 349 348 347 345 349 349 350 348 348 349 349 350 349 349 349 351 351 350
345 345 344 343 343 345 346 347 348 348 349 348 348 348 349 348 349 348 350 351 350 349 347 349 350 350 350 349 349 350 350 352 350
342 343 342 343 343 343 345 347 349 349 349 348 348 348 347 349 351 349 349 351 350 350 347 350 348 349 348 347 350 349 351 350 351
339 339 339 343 344 343 344 346 346 349 351 350 349 348 347 348 350 349 349 349 350 350 350 351 350 345 344 349 351 351 352 351 350
347 342 344 343 344 343 343 344 345 350 351 351 351 350 348 348 348 351 350 349 350 350 350 351 350 350 350 350 350 351 351 351 350
347 345 345 343 343 345 344 345 346 348 350 351 351 351 350 349 351 351 350 350 349 348 349 349 348 349 351 351 349 349 347 348 348
345 345 346 344 344 346 347 346 347 348 347 349 349 348 348 348 348 347 345 345 346 345 345 347 347 347 347 347 347 347 346 346 347
341 339 338 338 339 343 344 347 347 347 348 347 345 344 343 345 343 344 343 342 344 343 343 345 346 346 345 345 345 345 344 345 345
333 332 331 330 332 336 344 346 347 346 347 345 341 342 343 343 344 343 344 344 343 342 342 341 341 339 339 339 340 341 342 344 344
328 327 325 326 328 336 344 342 337 344 345 346 346 345 345 344 344 343 342 341 339 339 337 334 329 332 336 338 340 340 339 339 342
324 324 324 325 327 328 331 340 343 344 343 343 344 344 343 343 342 341 340 337 335 332 329 327 327 328 331 334 338 339 339 335 336
324 323 323 324 325 327 329 334 339 332 334 335 337 341 340 339 339 339 338 336 334 331 329 327 321 318 317 322 330 333 334 336 331
322 322 322 322 323 325 328 330 333 332 330 335 336 337 337 338 338 338 337 336 332 328 322 317 313 312 312 311 313 323 326 324 325
321 322 321 322 322 322 323 327 329 328 330 332 334 332 330 331 332 330 329 328 326 323 319 316 314 312 310 310 311 312 312 315 316
320 320 320 321 320 320 321 322 324 327 329 330 327 326 325 324 325 325 322 321 318 321 321 322 317 314 312 306 305 308 310 310 313
319 320 319 318 319 319 320 320 320 322 323 323 323 321 320 319 317 316 316 315 311 310 312 320 321 314 313 308 303 301 303 305 310
320 320 319 317 317 318 319 319 319 319 319 319 319 319 318 317 316 316 316 317 318 317 315 313 314 316 314 306 303 303 308 310 311